Regional Weather Roundup
Issued by NWS

Home | Current Version | Previous Version | Graphics & Text | Print | Product List | Glossary On
Versions: 1 2 3 4 5 6 7 8 9 10 11 12 13 14 15 16 17 18 19 20 21 22 23 24 25 26 27 28 29 30 31 32 33 34 35 36 37 38 39 40 41 42 43 44 45 46 47 48 49 50
955
ASUS45 KSLC 081410
RWRUT

UTAH REGIONAL WEATHER ROUNDUP
NATIONAL WEATHER SERVICE SALT LAKE CITY UT
700 AM MST MON FEB 08 2016

UTZ001>011-023>025-081500-

NORTHERN UTAH

CITY           SKY/WX    TMP DP  RH WIND       PRES   REMARKS
BRIGHAM CITY     N/A     11   8  86 CALM      30.69S VSB 1/4
HILL AFB       PTCLDY    23  13  64 E13       30.66R WCI  11
LOGAN          FOG       10   7  87 CALM      30.71R VSB 1/4
OGDEN          PTCLDY    23  20  88 CALM      30.67R
PROVO AIRPORT  CLEAR     21  18  86 CALM      30.69S FOG
SALT LAKE CITY PTCLDY    25  20  81 CALM      30.68R HAZE
VERNAL         CLOUDY     9   4  80 CALM      30.60R
WENDOVER       PTCLDY    21  18  86 E3        30.68S
HEBER CITY     PTCLDY     1  -4  78 CALM      30.66R
WEST JORDAN    CLEAR     21  19  93 CALM      30.67S

$$

UTZ012>022-026-027-081500-

SOUTHERN/CENTRAL UTAH

CITY           SKY/WX    TMP DP  RH WIND       PRES   REMARKS
BLANDING       CLEAR     23  13  66 E3        30.56S
BRYCE CANYON   PTCLDY     8   3  80 NW6       30.59R WCI  -2
CEDAR CITY     PTCLDY    15  10  80 S3        30.60S
DELTA          CLOUDY     3   1  88 CALM      30.68R VSB 1/4
HANKSVILLE     MOCLDY     9   5  85 CALM      30.62R
MILFORD        MOCLDY     7  32 100 CALM      30.65R
MOAB/CYNLANDS  PTCLDY    14  12  92 CALM      30.58R
PRICE          PTCLDY    17  11  77 E5        30.53R WCI  10
ST GEORGE      MOSUNNY   36  21  55 N3        30.55R
KANAB          CLEAR     32  23  69 NE5       30.56R WCI  27

$$

REGIONAL REPORTS     COLORADO/ARIZONA

CITY           SKY/WX    TMP DP  RH WIND       PRES   REMARKS
CRAIG, CO      CLOUDY    -4  -9  79 CALM      30.58R
GRAND JUNCTION CLOUDY    16  13  88 E5        30.59R WCI   9
RIFLE          CLOUDY    11   5  77 SE6       30.61R WCI   1
MONTROSE       CLOUDY    12   6  77 SE6       30.60R WCI   3
CORTEZ         CLOUDY    14  10  84 E6        30.47R WCI   5
PAGE, AZ       PTCLDY    29  23  78 SW3       30.55R
GRAND CANYON   PTCLDY    38  15  39 NE9       30.49S WCI  31
KINGMAN        CLEAR     40  20  44 NE10      30.40R WCI  33
FLAGSTAFF      CLEAR     34  12  40 E12       30.48R WCI  25

$$

REGIONAL REPORTS    NEVADA/IDAHO/WYOMING

CITY           SKY/WX    TMP DP  RH WIND       PRES   REMARKS
LAS VEGAS, NV  CLEAR     50  23  34 NW3       30.41S
ELY            PTCLDY     5   2  87 S13       30.64S WCI -12
ELKO           MOCLDY     7   3  84 NE7       30.69R WCI  -5
POCATELLO, ID  CLOUDY    24  23  96 NE6       30.69S FOG     WCI  17
BURLEY         CLEAR     26  24  92 NE6       30.64F WCI  19
EVANSTON, WY   CLOUDY    22  15  75 SW5       30.61R WCI  16
ROCK SPRINGS   CLOUDY    24  16  71 W21       30.51R WCI   9

$$




USA.gov is the U.S. government's official web portal to all federal, state and local government web resources and services.